False Pass, AK

3:04 AM HDT on August 18, 2017 (GMT -0900)
False Pass

Weather History for PAKF - July, 2013

Change the Weather History Date:

Sunday, July 7, 2013

  Actual Average (PACD) Record (PACD)
Temperature  
Mean Temperature 50 °F 50 °F  
Max Temperature 44 °F 54 °F 66 °F (2007)
Min Temperature 45 °F 46 °F 39 °F (1956)
Degree Days  
Heating Degree Days 16 15  
Month to date heating degree days 108  
Since 1 June heating degree days 669  
Since 1 July heating degree days 108  
Cooling Degree Days 0 0  
Month to date cooling degree days 0  
Year to date cooling degree days 0  
Since 1 June cooling degree days 0  
Moisture  
Dew Point 41 °F    
Average Humidity 76    
Maximum Humidity 90    
Minimum Humidity 63    
Precipitation  
Precipitation 0.05 in 0.08 in 0.52 in (1978)
Month to date precipitation 0.53  
Year to date precipitation 17.11  
Snow  
Snow 0.00 in 0.00 in - ()
Month to date snowfall 0.0  
Since 1 June snowfall T  
Since 1 July snowfall 0.0  
Snow Depth -    
Sea Level Pressure  
Sea Level Pressure 30.00 in    
Wind  
Wind Speed 21 mph (WSW)    
Max Wind Speed 34 mph    
Max Gust Speed 50 mph    
Visibility 7 miles    
Events Rain    
T = Trace of Precipitation, MM = Missing Value Source: NWS Daily Summary

Daily Weather History Graph

Daily Weather History Graph

Search for Another Location

Airport or City:

Trip Planner

Search our weather history database for the weather conditions in past years. The results will help you decide how hot, cold, wet, or windy it might be!

Date:

Astronomy

Jul. 07, 2013 Rise Set
Actual Time 5:26 AM HDT 10:30 PM HDT
Civil Twilight 4:31 AM HDT 11:24 PM HDT
Nautical Twilight 2:44 AM HDT 1:09 AM HDT
Astronomical Twilight Sun does not set Sun does not set
Moon 5:26 AM HDT (7/7) 9:44 PM HDT (7/7)
Length of Visible Light 18h 53m
Length of Day
17h 03m
Waning Crescent, 0% of the Moon is Illuminated
Jul 7
Waning Crescent
Jul 7
New
Jul 15
First Quarter
Jul 22
Full
Jul 29
Last Quarter

Hourly Weather History & Observations

Time (HDT) Temp. Windchill Dew Point Humidity Pressure Visibility Wind Dir Wind Speed Gust Speed Precip Events Conditions
12:01 AM 46.0 °F 40.2 °F 41.0 °F 83% 30.00 in 5.0 mi WSW 12.7 mph 24.2 mph 0.02 in Rain Light Rain
1:01 AM 46.0 °F 37.6 °F 41.0 °F 83% 30.00 in 4.0 mi WSW 24.2 mph 32.2 mph 0.01 in Rain Light Rain
1:51 AM 46.4 °F 39.0 °F 41.0 °F 81% 29.72 in 3.0 mi West 19.6 mph 32.2 mph 0.02 in Rain Light Rain
2:01 AM 46.4 °F 38.7 °F 41.0 °F 81% 29.72 in 4.0 mi WSW 20.7 mph 36.8 mph 0.02 in Rain Light Rain
2:07 AM 46.0 °F 37.8 °F 41.0 °F 83% 30.01 in 4.0 mi West 23.0 mph 36.8 mph 0.02 in Rain Light Rain
3:01 AM 46.0 °F 37.6 °F 41.0 °F 83% 30.00 in 5.0 mi WSW 24.2 mph 33.4 mph 0.00 in Rain Light Rain
3:53 AM 46.4 °F 37.2 °F 39.2 °F 76% 29.72 in 4.0 mi WSW 29.9 mph 42.6 mph 0.01 in Rain Light Rain
4:01 AM 46.0 °F 36.1 °F 39.9 °F 79% 30.00 in 4.0 mi WSW 34.5 mph 44.9 mph 0.01 in Rain Light Rain
4:42 AM 46.4 °F 37.7 °F 39.2 °F 76% 29.73 in 7.0 mi WSW 26.5 mph 42.6 mph 0.01 in Rain Light Rain
4:47 AM 46.4 °F 37.7 °F 39.2 °F 76% 29.73 in 7.0 mi WSW 26.5 mph 42.6 mph 0.01 in Rain Light Rain
4:54 AM 46.4 °F 37.2 °F 39.2 °F 76% 29.74 in 6.0 mi West 29.9 mph 49.5 mph 0.01 in Rain Light Rain
5:01 AM 46.0 °F 37.0 °F 39.9 °F 79% 30.02 in 6.0 mi WSW 27.6 mph 38.0 mph 0.01 in Rain Light Rain
5:09 AM 46.4 °F 37.4 °F 39.2 °F 76% 29.75 in 5.0 mi WSW 28.8 mph 41.4 mph 0.00 in Rain Light Rain
5:20 AM 46.4 °F 37.7 °F 39.2 °F 76% 29.75 in 3.0 mi WSW 26.5 mph 40.3 mph 0.00 in Rain Light Rain
5:52 AM 46.4 °F 37.2 °F 39.2 °F 76% 29.75 in 4.0 mi West 29.9 mph 40.3 mph 0.00 in Rain Light Rain
6:01 AM 46.0 °F 36.4 °F 39.9 °F 79% 30.04 in 4.0 mi West 32.2 mph 41.4 mph 0.00 in Rain Light Rain
6:18 AM 46.4 °F 37.4 °F 39.2 °F 76% 29.76 in 6.0 mi West 28.8 mph 40.3 mph 0.00 in Rain Light Rain
6:47 AM 46.4 °F 37.7 °F 39.2 °F 76% 29.76 in 10.0 mi WSW 26.5 mph 42.6 mph 0.00 in   Overcast
7:01 AM 46.4 °F 37.2 °F 39.2 °F 76% 29.77 in 10.0 mi West 29.9 mph 35.7 mph 0.00 in   Overcast
8:01 AM 48.9 °F - 39.9 °F 71% 30.08 in 10.0 mi West 26.5 mph 35.7 mph 0.00 in   Overcast
8:24 AM 46.4 °F 37.9 °F 41.0 °F 81% 29.82 in 5.0 mi WSW 25.3 mph 43.7 mph N/A   Haze
8:42 AM 46.4 °F 39.0 °F 39.2 °F 76% 29.83 in 9.0 mi West 19.6 mph 32.2 mph N/A   Overcast
9:01 AM 46.9 °F - 39.9 °F 77% 30.12 in 5.0 mi West 23.0 mph 29.9 mph 0.00 in Rain Light Rain
9:13 AM 46.4 °F 37.9 °F 39.2 °F 76% 29.85 in 10.0 mi WSW 25.3 mph 42.6 mph 0.00 in   Overcast
9:23 AM 46.4 °F 39.2 °F 39.2 °F 76% 29.85 in 7.0 mi West 18.4 mph 31.1 mph 0.00 in   Overcast
9:56 AM 46.4 °F 41.1 °F 41.0 °F 81% 29.87 in 7.0 mi West 11.5 mph 20.7 mph 0.00 in   Overcast
10:01 AM 46.9 °F - 42.1 °F 83% 30.15 in 6.0 mi WSW 20.7 mph 28.8 mph 0.00 in   Haze
11:01 AM 48.0 °F - 41.0 °F 77% 30.17 in 7.0 mi WSW 17.3 mph 27.6 mph 0.00 in   Overcast
12:01 PM 50.0 °F - 42.1 °F 74% 30.19 in 8.0 mi West 18.4 mph 24.2 mph N/A   Overcast
1:01 PM 50.0 °F - 43.0 °F 77% 30.22 in 6.0 mi West 12.7 mph 27.6 mph N/A   Haze
1:17 PM 51.8 °F - 42.8 °F 71% 29.94 in 4.0 mi West 21.9 mph 31.1 mph N/A   Haze
2:01 PM 51.1 °F - 41.0 °F 68% 30.19 in 10.0 mi West 26.5 mph 39.1 mph N/A   Overcast
3:01 PM 53.1 °F - 44.1 °F 71% 30.23 in 10.0 mi WSW 15.0 mph 36.8 mph N/A   Clear
3:25 PM 53.6 °F - 44.6 °F 72% 29.96 in 10.0 mi WNW 8.1 mph 23.0 mph N/A   Mostly Cloudy
3:44 PM 53.6 °F - 42.8 °F 67% 29.97 in 10.0 mi SW 13.8 mph 24.2 mph N/A   Overcast
4:01 PM 53.1 °F - 43.0 °F 69% 30.26 in 10.0 mi West 8.1 mph 24.2 mph N/A   Overcast
5:01 PM 53.1 °F - 42.1 °F 66% 30.27 in 10.0 mi West 10.4 mph 23.0 mph N/A   Overcast
6:01 PM 53.1 °F - 42.1 °F 66% 30.29 in 10.0 mi WSW 12.7 mph 21.9 mph N/A   Overcast
6:29 PM 51.8 °F - 42.8 °F 71% 30.00 in 10.0 mi WSW 10.4 mph - N/A   Overcast
7:01 PM 52.0 °F - 39.9 °F 63% 30.29 in 10.0 mi SW 10.4 mph 16.1 mph N/A   Overcast
8:01 PM 52.0 °F - 42.1 °F 69% 30.30 in 10.0 mi North - - N/A   Overcast
8:37 PM 48.2 °F - 42.8 °F 82% 30.03 in 10.0 mi SSW 5.8 mph - N/A   Overcast
9:01 PM 48.9 °F - 41.0 °F 74% 30.31 in 10.0 mi Variable 3.5 mph - N/A   Mostly Cloudy
9:29 PM 46.4 °F 41.1 °F 42.8 °F 87% 30.03 in 10.0 mi NNW 11.5 mph - N/A   Mostly Cloudy
10:01 PM 46.9 °F - 41.0 °F 80% 30.32 in 10.0 mi NNW 8.1 mph - N/A   Partly Cloudy
10:20 PM 46.4 °F 45.2 °F 41.0 °F 81% 30.04 in 10.0 mi NW 3.5 mph - N/A   Partly Cloudy
11:01 PM 45.0 °F 38.2 °F 42.1 °F 90% 30.33 in 10.0 mi NE 15.0 mph - N/A   Clear